Lake Charles Regional, LA

7:47 AM CDT on October 22, 2017 (GMT -0500)
Lake Charles Regional

Weather History for KLCH - January, 2013

Change the Weather History Date:

Friday, January 25, 2013

  Actual Average Record
Temperature  
Mean Temperature 65 °F 52 °F  
Max Temperature 75 °F 62 °F 85 °F (1914)
Min Temperature 55 °F 43 °F 22 °F (1963)
Degree Days  
Heating Degree Days 0 13  
Month to date heating degree days 301 345  
Since 1 July heating degree days 756 919  
Cooling Degree Days 0 0  
Month to date cooling degree days 9 0  
Year to date cooling degree days 9 0  
Growing Degree Days 15 (Base 50)    
Moisture  
Dew Point 58 °F    
Average Humidity 77    
Maximum Humidity 93    
Minimum Humidity 60    
Precipitation  
Precipitation 0.00 in 0.15 in 1.71 in (2012)
Month to date precipitation 11.32 4.30  
Year to date precipitation 11.32 4.30  
Snow  
Snow 0.00 in 0.00 in T in (1979)
Month to date snowfall 0.0 0.0  
Since 1 July snowfall 0.0 T  
Snow Depth 0.00 in    
Sea Level Pressure  
Sea Level Pressure 30.19 in    
Wind  
Wind Speed 6 mph (SSW)    
Max Wind Speed 16 mph    
Max Gust Speed 24 mph    
Visibility 7 miles    
Events Fog    
T = Trace of Precipitation, MM = Missing Value Source: NWS Daily Summary

Daily Weather History Graph

Daily Weather History Graph

Search for Another Location

Airport or City:

Trip Planner

Search our weather history database for the weather conditions in past years. The results will help you decide how hot, cold, wet, or windy it might be!

Date:

Astronomy

Jan. 25, 2013 Rise Set
Actual Time 7:06 AM CST 5:44 PM CST
Civil Twilight 6:41 AM CST 6:09 PM CST
Nautical Twilight 6:12 AM CST 6:38 PM CST
Astronomical Twilight 5:43 AM CST 7:07 PM CST
Moon 4:41 PM CST (1/25) 5:46 AM CST (1/25)
Length of Visible Light 11h 28m
Length of Day
10h 37m
Waxing Gibbous, 98% of the Moon is Illuminated
Jan 25
Waxing Gibbous
Jan 26
Full
Feb 3
Last Quarter
Feb 10
New
Feb 17
First Quarter

Hourly Weather History & Observations

Time (CST) Temp. Dew Point Humidity Pressure Visibility Wind Dir Wind Speed Gust Speed Precip Events Conditions
12:53 AM 60.1 °F 57.9 °F 93% 30.22 in 10.0 mi South 5.8 mph - N/A   Clear
1:53 AM 61.0 °F 57.9 °F 90% 30.21 in 10.0 mi South 5.8 mph - N/A   Clear
2:53 AM 61.0 °F 57.9 °F 90% 30.20 in 10.0 mi South 6.9 mph - N/A   Clear
3:53 AM 61.0 °F 57.0 °F 87% 30.20 in 10.0 mi South 3.5 mph - N/A   Partly Cloudy
4:25 AM 60.8 °F 57.2 °F 88% 30.17 in 10.0 mi South 4.6 mph - N/A   Mostly Cloudy
4:53 AM 61.0 °F 57.9 °F 90% 30.19 in 10.0 mi South 5.8 mph - N/A   Mostly Cloudy
5:13 AM 60.8 °F 57.2 °F 88% 30.16 in 10.0 mi SSE 5.8 mph - N/A   Scattered Clouds
5:53 AM 60.1 °F 57.9 °F 93% 30.19 in 10.0 mi South 5.8 mph - N/A   Clear
6:29 AM 59.0 °F 57.2 °F 94% 30.18 in 10.0 mi Calm Calm - N/A   Mostly Cloudy
6:53 AM 59.0 °F 57.0 °F 93% 30.22 in 10.0 mi Calm Calm - N/A   Overcast
7:53 AM 59.0 °F 57.0 °F 93% 30.22 in 7.0 mi Calm Calm - N/A   Mostly Cloudy
8:09 AM 60.8 °F 59.0 °F 94% 30.20 in 6.0 mi Calm Calm - N/A   Partly Cloudy
8:49 AM 66.2 °F 62.6 °F 88% 30.20 in 10.0 mi South 5.8 mph - N/A   Mostly Cloudy
8:53 AM 66.9 °F 62.1 °F 84% 30.23 in 10.0 mi South 8.1 mph - N/A   Scattered Clouds
9:10 AM 68.0 °F 62.6 °F 83% 30.22 in 10.0 mi SSW 8.1 mph - N/A   Mostly Cloudy
9:53 AM 71.1 °F 61.0 °F 70% 30.24 in 10.0 mi SSW 9.2 mph - N/A   Mostly Cloudy
10:33 AM 71.6 °F 60.8 °F 69% 30.23 in 10.0 mi SSW 11.5 mph 19.6 mph N/A   Mostly Cloudy
10:53 AM 72.0 °F 61.0 °F 68% 30.25 in 10.0 mi SSW 10.4 mph 18.4 mph N/A   Mostly Cloudy
11:53 AM 73.9 °F 61.0 °F 64% 30.22 in 10.0 mi SSW 12.7 mph 21.9 mph N/A   Scattered Clouds
12:41 PM 73.4 °F 60.8 °F 65% 30.18 in 10.0 mi SSW 12.7 mph 24.2 mph N/A   Mostly Cloudy
12:53 PM 73.0 °F 61.0 °F 66% 30.20 in 10.0 mi SW 15.0 mph 20.7 mph N/A   Mostly Cloudy
1:53 PM 73.9 °F 61.0 °F 64% 30.17 in 10.0 mi SW 11.5 mph 18.4 mph N/A   Mostly Cloudy
2:53 PM 75.0 °F 60.1 °F 60% 30.17 in 10.0 mi WSW 13.8 mph 17.3 mph N/A   Partly Cloudy
3:53 PM 73.0 °F 59.0 °F 61% 30.14 in 10.0 mi SW 13.8 mph 21.9 mph N/A   Clear
4:53 PM 70.0 °F 61.0 °F 73% 30.15 in 10.0 mi SSW 8.1 mph - N/A   Clear
5:53 PM 66.9 °F 61.0 °F 81% 30.15 in 8.0 mi South 4.6 mph - N/A   Partly Cloudy
6:53 PM 63.0 °F 60.1 °F 90% 30.16 in 10.0 mi South 4.6 mph - N/A   Clear
7:53 PM 63.0 °F 60.1 °F 90% 30.16 in 10.0 mi South 4.6 mph - N/A   Clear
8:53 PM 59.0 °F 57.9 °F 96% 30.17 in 6.0 mi Calm Calm - N/A   Scattered Clouds
9:02 PM 59.0 °F 57.2 °F 94% 30.15 in 9.0 mi Calm Calm - N/A   Mostly Cloudy
9:31 PM 57.2 °F 55.4 °F 94% 30.16 in 1.8 mi Calm Calm - N/A   Mostly Cloudy
9:34 PM 57.2 °F 55.4 °F 94% 30.16 in 6.0 mi NE 3.5 mph - N/A   Mostly Cloudy
9:41 PM 57.2 °F 55.4 °F 94% 30.17 in 6.0 mi Calm Calm - N/A   Scattered Clouds
9:49 PM 57.2 °F 55.4 °F 94% 30.17 in 6.0 mi Calm Calm - N/A   Mostly Cloudy
9:53 PM 57.9 °F 55.9 °F 93% 30.19 in 4.0 mi Calm Calm - N/A   Mostly Cloudy
10:01 PM 57.2 °F 55.4 °F 94% 30.17 in 1.5 mi Calm Calm - N/A   Mostly Cloudy
10:07 PM 57.2 °F 57.2 °F 100% 30.17 in 0.2 mi Calm Calm - N/A Fog Fog
10:19 PM 57.2 °F 55.4 °F 94% 30.17 in 1.2 mi Calm Calm - N/A   Mostly Cloudy
10:23 PM 57.2 °F 55.4 °F 94% 30.18 in 4.0 mi Calm Calm - N/A   Overcast
10:34 PM 55.4 °F 53.6 °F 94% 30.18 in 1.5 mi Calm Calm - N/A   Overcast
10:39 PM 55.4 °F 53.6 °F 94% 30.18 in 0.8 mi Calm Calm - N/A   Mist
10:48 PM 55.4 °F 53.6 °F 94% 30.18 in 2.0 mi Calm Calm - N/A   Mostly Cloudy
10:49 PM 55.9 °F 54.0 °F 93% 30.20 in 2.5 mi Calm Calm - N/A   Mostly Cloudy
10:58 PM 57.2 °F 55.4 °F 94% 30.18 in 0.8 mi Calm Calm - N/A   Mist
11:06 PM 55.4 °F 53.6 °F 94% 30.18 in 1.0 mi Calm Calm - N/A   Mist
11:15 PM 55.4 °F 53.6 °F 94% 30.18 in 3.0 mi Calm Calm - N/A   Mostly Cloudy
11:22 PM 55.4 °F 53.6 °F 94% 30.18 in 1.5 mi Calm Calm - N/A   Overcast
11:27 PM 55.4 °F 53.6 °F 94% 30.18 in 0.2 mi Calm Calm - N/A Fog Fog
11:41 PM 55.4 °F 55.4 °F 100% 30.18 in 0.2 mi NE 3.5 mph - N/A Fog Fog
11:53 PM 57.0 °F 55.0 °F 93% 30.20 in 0.5 mi Calm Calm - N/A Fog Fog